Regional Weather Roundup
Issued by NWS

Home | Current Version | Previous Version | Text Only | Print | Product List | Glossary Off
Versions: 1 2 3 4 5 6 7 8 9 10 11 12 13 14 15 16 17 18 19 20 21 22 23 24 25 26 27 28 29 30 31 32 33 34 35 36 37 38 39 40 41 42 43 44 45 46 47 48 49 50

849
ASUS45 KBOU 241407
RWRCO

WEATHER ROUNDUP FOR COLORADO
NATIONAL WEATHER SERVICE DENVER/BOULDER CO
800 AM MDT WED AUG 24 2016

NOTE: "FAIR" INDICATES FEW OR NO CLOUDS BELOW 12000 FEET WITH NO
SIGNIFICANT WEATHER AND/OR OBSTRUCTIONS TO VISIBILITY.

COZ001>005-013-030-031-241500-
...NORTHWEST COLORADO...

CITY           SKY/WX    TMP DP  RH WIND       PRES   REMARKS
CRAIG          FAIR      50  45  83 CALM      30.26S
HAYDEN         FAIR      54  39  58 E7        30.28R
MEEKER         FAIR      51  45  79 CALM      30.28R
MOUNT WERNER   NOT AVBL
STEAMBOAT SPGS FAIR      48  43  81 CALM      30.30R
WALDEN         CLOUDY    46  37  71 SE5       30.37R
$$

COZ006>008-011-241500-
...WEST CENTRAL VALLEYS...

CITY           SKY/WX    TMP DP  RH WIND       PRES   REMARKS
GRAND JUNCTION FAIR      62  48  60 E10       30.21R
MONTROSE       FAIR      55  50  83 S6        30.28S
EAGLE          SUNNY     50  45  81 CALM      30.33R
RIFLE          FAIR      53  50  89 NE3       30.26S
DELTA          NOT AVBL
NUCLA          FAIR      54  52  94 E7        30.31S
$$

COZ017>023-064>068-241500-
...SOUTHWEST COLORADO...

CITY           SKY/WX    TMP DP  RH WIND       PRES   REMARKS
DURANGO        PTSUNNY   52  49  89 E5        30.29R
CORTEZ         FAIR      55  53  93 N3        30.26R
PAGOSA SPRINGS PTSUNNY   50  46  87 CALM      30.34S
TELLURIDE      FOG       45  45 100 CALM      30.44R VSB 1
WOLF CREEK PAS PTSUNNY   37  37 100 CALM      30.56R
$$

COZ009-010-012-014-032>034-037-058>063-241500-
...CENTRAL COLORADO...

CITY           SKY/WX    TMP DP  RH WIND       PRES   REMARKS
ASPEN          FAIR      47  45  93 S5        30.35R
BUENA VISTA    LGT RAIN  49  45  84 CALM      30.38R
COPPER MTN     LGT SNOW  37  34  87 E3        30.55R
BERTHOUD PASS  CLOUDY    32  19  59 MISG      30.58R
COTTONWOOD PAS CLOUDY    46  43  87 CALM      30.45R
GUNNISON       FAIR      48  45  87 CALM      30.38R
KREMMLING      FAIR      50  45  81 CALM      30.36R
LEADVILLE      LGT RAIN  41  39  93 CALM      30.44S
MONARCH PASS   FOG       36  36 100 W5        30.64R VSB<1/4
SALIDA         CLOUDY    52  49  90 CALM      30.44R
SUNLIGHT       FAIR      45  37  76 CALM      30.53R
WILKERSON PASS DRIZZLE   37  36  93 S6        30.54S
$$

COZ069>075-241500-
...SAN LUIS VALLEY/SANGRE DE CRISTO MOUNTAINS...

CITY           SKY/WX    TMP DP  RH WIND       PRES   REMARKS
ALAMOSA        CLOUDY    47  46  97 CALM      30.34R
LA VETA PASS   DRIZZLE   43  37  81 CALM      30.46R
SAGUACHE       CLOUDY    52  46  82 NW7       30.36R
$$

COZ035-036-038>040-241500-
...NORTHERN COLORADO FRONT RANGE...

CITY           SKY/WX    TMP DP  RH WIND       PRES   REMARKS
DENVER INTL AP CLOUDY    67  42  40 S8        30.20R
DMNS CITY PARK   N/A     65  45  48 S7        30.20R
AURORA         PTSUNNY   65  44  46 SW10      30.22R
FRONT RANGE AP CLOUDY    66  43  42 E10G17    30.22R
ERIE MUNI ARPT LGT RAIN  67  44  43 E7        30.18R
BOULDER MUN AP CLOUDY    64  45  48 CALM      30.18R
CENTENNIAL     CLOUDY    64  42  44 S3        30.23R
BROOMFIELD     CLOUDY    66  41  39 S3        30.22R
FORT COLLINS   FAIR      63  46  55 N8        30.19R
LONGMONT       CLOUDY    67  48  50 NW3       30.20R
$$

COZ041-046-047-076>085-087-088-241500-
...PIKES PEAK/PALMER DIVIDE AND SOUTHERN FOOTHILLS...

CITY           SKY/WX    TMP DP  RH WIND       PRES   REMARKS
COLO. SPRINGS  PTSUNNY   64  45  49 N5        30.26R
A. F. ACADEMY  PTSUNNY   57  46  65 NE5       30.27R
SCHRIEVER AFB  NOT AVBL
ELLICOTT       NOT AVBL
FALCON         CLOUDY    59  43  54 NW3       30.30R
FORT CARSON    NOT AVBL
LIMON          CLOUDY    63  42  46 E8        30.23R
MONUMENT HILL  CLOUDY    54  45  71 N3        30.32R
TRINIDAD       CLOUDY    56  50  80 W10       30.24R
$$

COZ042>045-048>051-090-091-241500-
...NORTHEAST COLORADO...

CITY           SKY/WX    TMP DP  RH WIND       PRES   REMARKS
GREELEY ARPT   FAIR      63  48  59 CALM      30.18R
AKRON          CLOUDY    61  40  45 E6        30.21R
BURLINGTON     CLOUDY    64  42  44 N9        30.18R
WRAY           FAIR      66  39  37 E7        30.15R
STERLING       CLOUDY    61  45  55 SE10      30.17R
HOLYOKE        FAIR      63  43  48 N9        30.15F
FORT MORGAN    CLOUDY    62  38  41 E17G23    30.19R
$$

COZ086-089-092>099-241500-
...SOUTHEAST COLORADO...

CITY           SKY/WX    TMP DP  RH WIND       PRES   REMARKS
PUEBLO         PTSUNNY   62  50  64 CALM      30.18R
LA JUNTA       FAIR      63  53  70 CALM      30.16R
LAMAR          FAIR      62  55  77 CALM      30.11R
SPRINGFIELD      N/A     64  51  62 N12       30.13S
$$




USA.gov is the U.S. government's official web portal to all federal, state and local government web resources and services.